Location: Tel Aviv
(32.0670°N, 34.7670°E)
Time: 11:30:05
(UTC+03:00)

Transit 2A - Pass Details

Date: 29 January 2022
Orbit: 598 x 960 km, 66.7° (Epoch: 20 May)

Event Time Altitude Azimuth Distance (km) Brightness Sun altitude
Rises 09:10:24 0° 192° (SSW) 3,416 9.8 26.5°
Reaches altitude 10° 09:12:50 10° 188° (S) 2,530 9.3 26.9°
Maximum altitude 09:18:38 56° 111° (ESE) 1,089 7.9 27.7°
Drops below altitude 10° 09:24:48 10° 35° (NE) 2,687 8.8 28.6°
Sets 09:27:26 0° 31° (NNE) 3,645 9.3 28.9°
